Tracking 29892 objects as of 21-Nov-2024
HD Live streaming from Space Station
objects crossing your sky now

STARLINK-31238

Track STARLINK-31238 now!
10-day predictions
STARLINK-31238 is classified as:


NORAD ID: 58853
Int'l Code: 2024-019A
Perigee: 494.4 km
Apogee: 495.8 km
Inclination: 43.0 °
Period: 94.4 minutes
Semi major axis: 6866 km
RCS: Unknown
Launch date: January 29, 2024
Source: United States (US)
Launch site: AIR FORCE EASTERN TEST RANGE (AFETR)
Your satellite tracking list
Your tracking list is empty




NASA's NSSDC Master Catalog

Two Line Element Set (TLE):
1 58853U 24019A   24325.68141620  .00006302  00000-0  25029-3 0  9991
2 58853  42.9938  41.2012 0001015 126.6451 233.4494 15.25943419 46640
Source of the keplerian elements: AFSPC